Find OneWeb SL0247

NORAD ID: 48777 Int'l Des: 2021-045 Owner: ONEWEBN Country: UK Constellation: oneweb operational
又名: ONEWEB-0247 spacetrack, celestrak
LEOCIRCULARPOLARONEWEB_TYPE

当前视图

正在加载3D地球...

About OneWeb SL0247

OneWeb SL0247 (NORAD 48777) is a oneweb constellation satellite launched May 28, 2021 by ONEWEBN of UK. It operates in LEO, CIRCULAR, POLAR, ONEWEB_TYPE orbit with a mass of 148.00 kg.

即将过境

Passes for default location (London). Set your location on the main map for personalized predictions.

高度历史

Loading altitude history...

两行轨道根数

1 48777U 21045L 26246.41030448 -.00000090 00000-0 -27400-3 0 9996
2 48777 87.8958 243.6143 0002791 80.0666 280.0779 13.15550048254699
Epoch: Sep 3, 2026 • Age: 24 hours

当前状态

高度 1209.9 km
远地点 / 近地点 N/A
速度 7.25 km/s
星下点 -20.75°S, 117.02°E
发射日期 May 28, 2021
运行时间 5.2 years
类型 internet

技术详情

分类 Payload
质量 148.00 kg
干质量 140.00 kg
总质量 148.00 kg
长度 1.30 m
直径 1.00 m
跨度 5.00 m
形状 Trapezoid+2 pan
制造商 ONEWUS
平台类型 ARROW
阶段状态 In Orbit
所有者/国家 ONEWEBN/UK

Most Searched